Ashland, WI

10:32 AM CDT on August 16, 2017 (GMT -0500)
Kennedy Memorial

Weather History for KASX - May, 2013

Change the Weather History Date:

Friday, May 17, 2013

  Actual Average Record
Temperature  
Mean Temperature 49 °F -  
Max Temperature 57 °F 68 °F 87 °F (1962)
Min Temperature 41 °F 39 °F 22 °F (1983)
Degree Days  
Heating Degree Days 16    
Moisture  
Dew Point 38 °F    
Average Humidity 70    
Maximum Humidity 86    
Minimum Humidity 53    
Precipitation  
Precipitation 0.00 in - - ()
Sea Level Pressure  
Sea Level Pressure 30.11 in    
Wind  
Wind Speed 7 mph (NNE)    
Max Wind Speed 14 mph    
Max Gust Speed -    
Visibility 10 miles    
Events      
Averages and records for this station are not official NWS values.
T = Trace of Precipitation, MM = Missing Value Source: NWS Daily Summary

Daily Weather History Graph

Daily Weather History Graph

Search for Another Location

Airport or City:

Trip Planner

Search our weather history database for the weather conditions in past years. The results will help you decide how hot, cold, wet, or windy it might be!

Date:

Astronomy

May. 17, 2013 Rise Set
Actual Time 5:27 AM CDT 8:33 PM CDT
Civil Twilight 4:51 AM CDT 9:09 PM CDT
Nautical Twilight 4:04 AM CDT 9:56 PM CDT
Astronomical Twilight 3:08 AM CDT 10:53 PM CDT
Moon 12:10 PM CDT (5/17) 1:17 AM CDT (5/17)
Length of Visible Light 16h 18m
Length of Day
15h 06m
Waxing Crescent, 45% of the Moon is Illuminated
May 17
Waxing Crescent
May 17
First Quarter
May 24
Full
May 31
Last Quarter
Jun 8
New

Hourly Weather History & Observations

Time (CDT) Temp. Windchill Dew Point Humidity Pressure Visibility Wind Dir Wind Speed Gust Speed Precip Events Conditions
12:53 AM 42.1 °F 38.4 °F 37.0 °F 82% 30.08 in 10.0 mi North 5.8 mph - N/A   Clear
1:53 AM 41.0 °F 35.8 °F 37.0 °F 86% 30.08 in 10.0 mi NNE 8.1 mph - N/A   Clear
2:53 AM 42.1 °F 38.4 °F 37.0 °F 82% 30.08 in 10.0 mi NE 5.8 mph - N/A   Mostly Cloudy
3:53 AM 43.0 °F 39.5 °F 37.0 °F 80% 30.11 in 10.0 mi NE 5.8 mph - N/A   Clear
4:53 AM 42.1 °F 36.6 °F 37.0 °F 82% 30.10 in 10.0 mi ENE 9.2 mph - N/A   Clear
5:53 AM 42.1 °F - 37.0 °F 82% 30.14 in 10.0 mi Calm Calm - N/A   Overcast
6:53 AM 43.0 °F 37.7 °F 37.9 °F 82% 30.15 in 10.0 mi NNE 9.2 mph - N/A   Overcast
7:53 AM 43.0 °F 38.8 °F 37.9 °F 82% 30.16 in 10.0 mi NNE 6.9 mph - N/A   Overcast
8:53 AM 46.0 °F 43.1 °F 39.0 °F 76% 30.15 in 10.0 mi North 5.8 mph - N/A   Scattered Clouds
9:53 AM 48.9 °F - 39.0 °F 69% 30.15 in 10.0 mi North 9.2 mph - N/A   Clear
10:53 AM 50.0 °F - 37.9 °F 63% 30.14 in 10.0 mi NNE 11.5 mph - N/A   Clear
11:53 AM 54.0 °F - 39.9 °F 59% 30.13 in 10.0 mi NNE 11.5 mph - N/A   Clear
12:53 PM 57.0 °F - 41.0 °F 55% 30.12 in 10.0 mi NNE 13.8 mph - N/A   Clear
1:53 PM 55.9 °F - 41.0 °F 57% 30.11 in 10.0 mi NNE 12.7 mph - N/A   Clear
2:53 PM 57.0 °F - 39.9 °F 53% 30.11 in 10.0 mi NE 10.4 mph - N/A   Clear
3:53 PM 55.0 °F - 39.9 °F 57% 30.10 in 10.0 mi NNE 11.5 mph - N/A   Clear
4:53 PM 53.1 °F - 39.9 °F 61% 30.10 in 10.0 mi NNE 9.2 mph - N/A   Scattered Clouds
5:53 PM 51.1 °F - 39.0 °F 63% 30.10 in 10.0 mi NNE 9.2 mph - N/A   Mostly Cloudy
6:53 PM 48.0 °F - 37.9 °F 68% 30.11 in 10.0 mi North 9.2 mph - N/A   Overcast
7:53 PM 46.9 °F - 37.0 °F 68% 30.09 in 10.0 mi NNE 11.5 mph - N/A   Overcast
8:53 PM 45.0 °F 41.8 °F 36.0 °F 71% 30.10 in 10.0 mi NE 5.8 mph - N/A   Overcast
9:53 PM 45.0 °F - 36.0 °F 71% 30.10 in 10.0 mi Calm Calm - N/A   Overcast
10:53 PM 46.0 °F - 37.0 °F 71% 30.09 in 10.0 mi Calm Calm - N/A   Overcast
11:53 PM 46.0 °F 44.8 °F 37.0 °F 71% 30.09 in 10.0 mi NNE 3.5 mph - N/A   Overcast